Location: Berville
(49.1893°N, 2.0748°E)
Time: 05:45:15
(UTC+00:00)

Cosmos 2278 Rocket - Pass Details

Date: 08 February 2023
Orbit: 841 x 845 km, 71.0° (Epoch: 21 March)

Event Time Altitude Azimuth Distance (km) Brightness Sun altitude
Rises 20:26:28 0° 322° (NW) 3,415 6.1 -33.9°
Reaches altitude 10° 20:29:19 10° 310° (NW) 2,474 5.3 -34.4°
Maximum altitude 20:33:48 25° 258° (WSW) 1,663 4.1 -35.0°
Enters shadow 20:35:42 20° 229° (SW) 1,835 4.1 -35.3°
